Погода в Сумарокове

Россия / Пензенская область     53°31′29″N   44°46′04″E
темп.,
°C
ветер,
м/с
пор.,
м/с
влажн.,
%
обл.,
%
осадки,
мм/ч
давл.,
гПа
погр.,
м
28 июля, ср
ср2800:00+17св12652 0.0 101811
03:00+17сз226710 0.0 101711
06:00+18ссз22695 0.0 101780
09:00+23с12543 0.0 1017492
12:00+26сз34415 0.0 10162172
15:00+27сз353964 0.0 10152422
18:00+25ссз2449100 0.0 1014138
21:00+21вюв2256100 0.0 101416
29 июля, чт
чт2900:00+19з3868100 0.0 1014223
03:00+19ю3573100 0.1 1013110
06:00+19вюв4671100 0.1 1011120
09:00+20ю51160100 0.1 1010513
12:00+25юз9115971 0.0 10081388
15:00+26юз61057100 0.6 10061211
18:00+26з49573 0.0 10051040
21:00+20зсз34785 0.0 100661
30 июля, пт
пт3000:00+17зсз338915 0.0 100840
03:00+16з349110 0.0 100856
06:00+19з23775 0.0 100891
09:00+25юз465582 0.0 1008612
12:00+29юз574179 0.0 10072572
15:00+29зюз574282 0.0 10061748
18:00+26юз234827 0.0 100578
21:00+19св119298 1.9 100748
31 июля, сб
сб3100:00+19ю3391100 0.2 100670
03:00+18юз3694100 1.0 1006135
06:00+19сз3594100 0.0 1006195
09:00+23зсз457339 0.0 1007895
12:00+27зсз564959 0.1 10072048
15:00+28зсз573812 0.1 10082415
18:00+26зсз35440 0.0 1008299
21:00+21ююз345392 0.0 100952
1 августа, вс
вс100:00+20зюз365741 0.0 101088
03:00+19зюз22603 0.0 101017
06:00+20зюз23615 0.0 101286
09:00+26зюз46444 0.0 1012666
12:00+29зюз57354 0.0 10112205
15:00+31зюз56310 0.0 10102478
18:00+29юз35390 0.0 1010179
21:00+23ююз34480 0.0 101048